Retour au catalogue

BRAZILSAT 1

ActifCommunicationsGEO
NORAD 15561·PAYLOAD·🇧🇷 Brazil

Lancé Feb 8, 1985 depuis Guiana Space Centre

Loading…

TLE

FraisSource: Space-Track

Époque: Sep 14, 2026, 04:45 UTC

1 15561U 85015B   26257.19794755 -.00000252  00000-0  00000-0 0  9996
2 15561  14.0627 344.2336 0003747 317.0582  61.9295  0.99548627 47230

Suivez BRAZILSAT 1 en temps réel avec AllMySat

Download on the App Store